Regional Weather Roundup
Issued by NWS

Home | Current Version | Previous Version | Text Only | Print | Product List | Glossary On
Versions: 1 2 3 4 5 6 7 8 9 10 11 12 13 14 15 16 17 18 19 20 21 22 23 24 25 26 27 28 29 30 31 32 33 34 35 36 37 38 39 40 41 42 43 44 45 46 47 48 49 50
000
ASUS44 KOUN 022110
RWROK

WEATHER ROUNDUP FOR OKLAHOMA
NATIONAL WEATHER SERVICE NORMAN OK
400 PM CDT TUE SEP 02 2014

NOTE: "FAIR" INDICATES FEW OR NO CLOUDS BELOW 12,000 FEET WITH NO
      SIGNIFICANT WEATHER AND/OR OBSTRUCTIONS TO VISIBILITY.

OKZ001>007-009>012-014-015-017-022200-
NORTHWEST OKLAHOMA AND THE PANHANDLE

CITY           SKY/WX    TMP DP  RH WIND       PRES   REMARKS
GAGE           PTSUNNY   90  66  45 SE12      29.91F HX  92
ENID/WOODRING  MOSUNNY   90  72  55 S17G23    29.91F HX  96
$$

OKZ016-021>023-033>039-044-045-022200-
SOUTHWEST OKLAHOMA

CITY           SKY/WX    TMP DP  RH WIND       PRES   REMARKS
LAWTON/REGL    MOSUNNY   99  65  32 S17G24    29.87F HX 102
LAWTON/FT SILL MOSUNNY   98  65  34 SE22G30   29.86F HX 101
FREDERICK      SUNNY     99  63  30 S18G29    29.85F HX 101
CLINTON        MOSUNNY   98  65  33 S24G31    29.91F HX 101
HOBART         SUNNY     97  67  37 S18G28    29.89F HX 101
ALTUS AFB      SUNNY     97  67  37 SE22G28   29.87F HX 102
$$

OKZ018>020-024>031-022200-
CENTRAL OKLAHOMA

CITY           SKY/WX    TMP DP  RH WIND       PRES   REMARKS
OKLAHOMA CITY  MOSUNNY   90  69  50 SE18G24   29.91F HX  94
OKC/WILEY POST MOSUNNY   89  70  53 S22G29    29.90F HX  94
OKC/TINKER AFB MOSUNNY   87  70  56 S21       29.91F HX  92
STILLWATER     SUNNY     86  69  56 S16       29.92F HX  90
GUTHRIE        SUNNY     88  70  55 S16G23    29.90F HX  93
$$

OKZ008-013-054>072-022200-
NORTHEAST OKLAHOMA

CITY           SKY/WX    TMP DP  RH WIND       PRES   REMARKS
TULSA          PTSUNNY   77  67  71 SE7       29.94F
TULSA/JONES    PTSUNNY   77  68  73 SE8       29.95F
PONCA CITY     CLOUDY    84  71  65 S8        29.93F
BARTLESVILLE   MOSUNNY   82  71  69 CALM      29.96F
MUSKOGEE       CLOUDY    74  68  81 SE8       29.96F
$$

OKZ032-040>043-046>053-073>077-022200-
SOUTH CENTRAL/SOUTHEAST OKLAHOMA

CITY           SKY/WX    TMP DP  RH WIND       PRES   REMARKS
ARDMORE/DWNTWN SUNNY     88  68  51 SE16G22   29.93F HX  91
MCALESTER      CLOUDY    83  68  60 SW7       29.94F
$$




USA.gov is the U.S. government's official web portal to all federal, state and local government web resources and services.